Dewpoint
58 59 59 60 60 61 61 61 62 62 63 62 63 63 63 63 60 57 53 55 55 60 59 55 52 49 46 41 44 42 33 33 35 27 26 33 34 38 43 44 52 55 54 54 58
58 58 58 59 59 60 60 61 61 62 63 62 62 63 63 61 57 55 58 61 61 60 55 53 50 50 45 43 42 40 34 35 40 29 26 28 34 38 43 45 48 51 57 58 59
58 58 58 58 59 59 59 60 60 61 62 62 62 62 62 59 53 53 61 62 61 56 52 52 53 52 46 45 43 43 37 39 36 32 29 28 34 35 40 41 45 48 54 57 57
57 57 57 57 58 59 59 59 60 61 61 62 62 62 61 54 43 49 60 63 62 53 50 54 52 48 44 42 43 42 44 45 45 45 42 29 27 32 39 37 38 48 56 57 57
56 56 57 57 57 58 59 59 59 60 61 61 61 61 57 52 49 51 60 63 57 52 49 52 50 47 44 43 44 40 39 45 48 47 34 31 27 28 27 28 49 56 57 57 57
56 56 56 56 57 58 58 58 59 60 60 60 61 60 54 47 52 57 56 58 54 51 50 51 50 49 46 46 42 43 43 45 44 41 31 29 30 36 28 38 54 56 56 56 57
56 56 55 56 57 57 57 57 58 59 60 61 61 57 52 47 52 59 59 56 55 52 50 50 47 48 46 43 47 47 43 44 45 43 36 32 30 32 32 49 53 54 54 55 57
56 56 55 55 56 57 57 57 57 58 59 60 60 55 49 54 57 57 56 55 55 53 52 51 49 45 45 44 43 42 39 37 40 42 37 31 32 32 34 47 49 53 53 54 56
56 55 55 55 56 56 57 57 57 58 58 58 55 52 46 55 52 56 55 54 54 54 53 51 47 43 43 39 35 36 33 34 38 38 37 32 31 33 35 34 40 49 52 54 55
53 55 55 55 55 55 56 57 56 56 54 54 53 47 48 48 51 53 54 55 53 52 50 49 45 42 39 37 32 32 32 34 35 36 34 33 32 32 35 38 37 36 48 52 54
52 53 55 55 55 55 55 50 45 44 49 41 42 42 46 50 53 51 53 51 50 47 44 46 42 40 40 38 37 35 35 34 35 38 33 34 35 36 36 35 36 36 33 41 51
51 55 55 55 54 55 50 43 40 39 41 45 44 45 49 50 47 50 53 46 44 42 45 43 40 40 41 41 39 37 34 33 37 38 34 34 33 33 34 35 35 35 34 32 32
51 54 54 54 54 52 47 43 45 44 37 41 45 44 46 47 44 47 50 46 43 40 41 37 38 41 39 39 39 38 37 35 35 37 35 33 34 35 36 34 34 35 35 34 32
52 50 54 53 51 47 46 45 47 41 29 36 40 43 46 44 41 48 50 45 43 39 41 40 40 40 38 38 38 36 39 39 38 36 32 34 29 32 35 35 36 36 36 35 33
49 50 54 53 48 44 46 46 45 38 17 34 41 44 45 39 41 43 50 46 41 40 40 36 39 39 38 37 39 36 39 39 38 36 35 33 33 31 34 34 35 36 37 38 38
50 48 54 50 47 44 47 47 44 28 12 34 39 40 39 39 39 46 47 47 45 40 39 38 44 40 39 39 39 39 38 37 36 35 30 30 33 28 31 35 36 36 37 38 38
46 48 52 47 44 47 48 43 30 23 24 33 34 38 36 37 38 40 40 40 36 34 35 38 39 42 41 38 38 39 36 31 30 30 24 25 31 30 33 34 35 35 37 38 39
46 53 50 45 46 49 46 35 24 18 23 34 34 35 32 35 35 36 37 36 36 33 30 32 30 38 42 39 37 37 35 29 22 24 24 29 28 28 35 35 35 36 38 38 38
47 50 46 47 48 48 39 27 22 23 27 32 33 32 31 33 32 34 33 34 34 36 28 28 28 36 37 40 38 37 36 35 30 18 22 27 31 31 33 33 36 37 37 38 38
45 45 44 47 49 44 33 26 24 28 32 33 30 31 28 31 29 31 32 32 33 37 34 33 31 36 36 39 39 38 37 34 34 25 20 23 25 26 30 31 32 31 33 37 38
45 39 46 48 48 40 28 26 28 33 31 30 29 31 29 31 28 30 31 30 33 34 36 35 32 29 39 37 34 37 35 37 35 30 23 19 20 28 28 28 29 30 32 34 33
41 33 47 47 37 35 29 29 34 32 32 31 30 29 29 30 30 29 28 27 33 36 32 34 34 25 29 38 40 36 34 35 33 27 29 26 25 26 28 25 27 28 29 25 23
38 40 47 44 30 32 32 30 32 30 30 29 29 31 31 30 28 31 31 34 34 33 34 35 32 27 23 31 38 38 38 37 34 31 27 25 25 28 19 18 21 24 21 21 24
40 33 38 37 33 32 29 26 27 31 30 29 30 31 30 29 30 32 35 33 36 34 39 38 31 26 20 20 28 30 33 36 37 33 30 28 27 28 26 18 19 20 23 23 25
35 32 33 29 28 30 27 25 25 25 30 30 29 29 28 28 27 28 32 31 33 37 38 38 33 32 31 31 33 34 31 34 35 34 33 32 29 30 29 26 20 19 23 25 27
32 33 33 30 30 28 28 25 23 27 26 26 26 28 24 26 26 26 29 27 25 32 37 38 30 33 30 35 32 31 33 36 34 33 33 34 32 32 30 28 20 20 22 24 27
33 32 33 31 29 26 23 25 24 27 28 27 28 28 25 25 23 29 28 28 30 31 31 33 31 28 21 30 31 29 30 31 34 36 35 33 33 34 30 30 28 23 21 22 24
Lifted_Index
2 2 2 1 1 1 1 1 0 -0 -1 -1 -1 -1 -1 -1 -0 -0 0 1 2 3 3 2 2 2 2 1 2 3 2 2 2 2 4 5 6 5 4 4 4 3 4 3 3
1 1 1 1 1 1 1 1 0 -0 -1 -1 -1 -1 -1 -0 -0 -0 0 1 2 2 2 2 2 2 2 1 1 2 2 2 2 3 4 5 6 5 4 4 4 3 3 3 3
0 0 0 1 0 0 0 0 -0 -1 -1 -1 -1 -1 -0 -0 0 0 0 0 1 2 2 2 1 2 2 2 2 1 2 2 3 4 4 5 6 5 4 4 4 4 3 3 3
-0 -0 -0 -0 -0 -0 -0 -0 -1 -1 -1 -2 -2 -1 -0 0 1 1 0 -0 1 2 2 1 1 1 2 2 2 2 1 2 2 3 4 5 5 5 5 5 5 4 4 3 3
-1 -1 -1 -0 -0 -0 -1 -1 -1 -1 -2 -2 -1 -1 -0 0 1 1 0 -0 0 1 1 1 1 2 2 3 3 3 2 2 2 3 4 4 5 5 5 6 5 4 3 3 3
-1 -1 -1 -1 -1 -1 -1 -1 -1 -1 -2 -2 -1 -1 -0 1 0 -0 -1 -1 0 1 1 1 1 1 2 3 3 3 3 3 2 2 3 3 3 4 5 5 4 3 3 3 3
-1 -1 -1 -1 -1 -1 -1 -1 -1 -1 -2 -2 -2 -1 -0 0 0 -1 -1 -1 -0 1 1 1 1 1 2 2 3 3 3 3 3 2 2 2 2 3 4 4 4 3 3 3 3
-1 -1 -1 -1 -1 -1 -1 -1 -1 -1 -2 -2 -2 -1 -0 0 -0 -1 -1 -1 -0 0 1 1 1 1 2 2 3 3 4 4 3 2 2 2 2 2 3 3 4 3 3 3 3
-1 -1 -1 -1 -1 -1 -1 -1 -1 -1 -2 -2 -2 -1 -0 0 -0 -1 -1 -1 -1 -0 0 1 1 2 2 2 3 3 4 5 4 3 3 2 2 2 3 3 4 4 4 4 3
0 -1 -1 -1 -1 -1 -1 -1 -1 -1 -1 -1 -0 0 1 1 -0 -0 -1 -1 -0 -0 0 1 1 2 2 2 3 4 4 5 5 4 4 3 3 2 3 4 4 4 5 4 4
1 0 -1 -1 -1 -1 -0 1 1 2 1 1 1 1 1 1 -0 -0 -0 -0 -0 0 0 1 1 2 2 2 3 3 4 4 5 5 5 4 4 3 4 4 5 5 5 5 4
1 0 -1 -1 -1 -1 1 2 3 3 3 2 2 2 1 0 -0 -0 -0 0 1 1 1 1 2 2 2 2 3 3 4 4 4 4 5 5 5 5 5 5 5 5 5 5 5
2 1 -0 -1 -1 0 2 3 3 3 3 2 2 2 1 0 0 0 -0 0 1 2 2 2 2 2 2 2 3 3 3 4 4 4 4 5 5 5 6 6 6 6 6 5 5
3 2 1 -0 -0 1 2 3 3 3 3 2 2 2 1 1 1 0 -0 0 1 2 2 2 2 2 2 3 3 3 3 3 3 3 4 4 4 5 6 6 6 6 6 5 5
3 3 1 0 1 2 2 2 2 2 2 2 2 2 2 2 1 1 -0 0 1 1 2 2 2 2 2 3 3 3 3 3 3 3 4 4 4 4 5 6 6 6 6 6 6
3 3 1 1 1 2 2 2 2 2 2 2 2 2 2 2 2 1 0 0 1 1 1 2 2 2 2 2 2 3 3 2 2 3 3 4 5 5 5 6 6 6 6 6 6
3 2 1 1 1 2 1 1 1 2 2 3 3 2 2 2 2 2 1 1 1 2 2 2 2 2 2 2 2 3 3 2 2 2 3 4 5 5 6 7 7 6 6 6 6
3 2 1 1 1 1 2 1 1 2 3 3 3 3 2 2 2 2 2 1 2 2 3 3 3 3 3 2 2 2 2 2 1 1 2 4 5 6 7 7 7 6 6 6 6
3 2 1 1 1 1 2 1 2 2 3 3 3 3 3 3 3 2 2 2 2 3 3 3 3 3 2 2 2 2 2 1 1 1 2 4 5 6 7 7 7 6 6 6 6
3 2 1 1 1 2 2 2 2 2 3 3 3 3 3 3 3 3 3 3 3 3 3 3 3 3 2 2 2 2 2 1 1 1 2 3 4 6 7 7 7 6 6 6 6
2 2 2 1 1 2 2 2 2 2 2 2 3 3 3 3 3 3 3 4 3 3 3 3 3 3 2 2 2 1 1 0 1 1 2 2 4 6 6 6 6 6 6 6 6
2 2 2 2 2 2 2 2 2 2 2 2 2 2 3 3 3 3 3 3 3 3 3 3 3 3 3 2 1 1 1 0 1 2 2 2 3 5 6 5 5 5 5 5 5
2 2 2 2 2 2 2 2 2 2 2 2 2 2 2 2 2 3 3 3 2 2 2 2 3 3 3 3 2 2 1 1 1 1 2 2 3 5 5 5 4 3 3 4 4
2 2 2 2 2 2 2 2 2 2 2 2 2 2 2 2 2 2 2 2 2 1 1 1 2 3 3 3 3 2 1 1 1 1 2 3 4 5 5 4 3 2 3 3 4
2 3 2 2 2 2 2 2 2 2 2 2 2 2 2 2 2 2 2 2 1 1 1 0 1 2 3 3 2 2 1 1 2 2 3 3 4 4 4 3 2 2 2 3 3
3 3 3 3 2 2 2 2 2 2 3 3 3 2 2 2 2 2 1 1 1 1 1 1 1 2 2 2 1 2 2 3 2 2 3 4 4 4 4 3 2 2 2 2 3
3 4 4 3 3 2 3 3 2 2 3 2 2 2 2 2 2 2 1 1 1 1 1 1 1 2 2 2 1 2 3 4 3 3 3 4 4 4 4 3 2 2 2 2 3